Location: Boiro
(42.6475°N, 8.8834°W)
Time: 06:09:18
(UTC+01:00)

Vanguard 1 - Pass Details

Date: 01 December 2021
Orbit: 652 x 3830 km, 34.2° (Epoch: 21 January)

Event Time Altitude Azimuth Distance (km) Brightness Sun altitude
Rises 00:22:09 0° 211° (SSW) 7,095 14.4 -65.4°
Enters shadow 00:23:03 - 210° (SSW) 6,962 14.3 -65.5°
Reaches altitude 10° 00:27:04 10° 204° (SSW) 6,393 - -66.0°
Maximum altitude 00:46:21 39° 144° (SE) 4,895 - -67.7°
Exits shadow 01:04:53 11° 86° (E) 6,270 14.0 -68.8°
Drops below altitude 10° 01:05:10 10° 85° (E) 6,309 14.1 -68.8°
Sets 01:09:53 0° 79° (ENE) 7,004 14.4 -68.9°
